Torna al catalogo

TITAN 3C TRANSTAGE DEB

AttivoMEO
NORAD 38704·DEBRIS·🇺🇸 United States

Lanciato Sep 26, 1968 da Cape Canaveral Space Force Station

Loading…

Prossimi Passaggi (prossime 24 ore)

TLE

AggiornatoSource: Space-Track

Epoca: Sep 14, 2026, 03:45 UTC

1 38704U 68081AE  26257.15653763  .00000014  00000-0  00000-0 0  9998
2 38704   4.3360  63.0550 0205136 219.7045 139.0598  1.02193344 76919

Traccia TITAN 3C TRANSTAGE DEB in tempo reale con AllMySat

Download on the App Store